Temperature
11 11 11 11 11 11 11 11 11 10 10 10 10 10 9 9 9 9 9 9 9 9 9 9 9 9 9 9 9 9 9 9 9 9 9 9 10 10 10 10 10 10 10
11 11 11 11 11 11 11 10 10 10 10 10 9 9 9 9 9 9 9 9 9 9 9 9 9 9 9 9 9 9 9 9 8 8 8 8 9 9 9 10 10 10 10
10 10 10 10 10 10 10 10 10 10 9 9 9 9 8 8 8 8 8 9 9 9 9 8 8 9 9 9 9 8 8 8 8 8 8 8 8 8 9 9 9 9 9
10 10 10 10 10 10 10 10 9 9 9 9 9 8 8 8 8 8 8 8 8 8 8 8 8 8 8 8 8 8 8 8 8 8 8 8 8 8 8 8 9 9 9
10 10 10 10 10 10 9 9 9 9 9 8 8 8 8 8 8 8 8 8 8 8 8 8 8 8 8 8 8 8 8 8 8 7 7 7 7 8 8 8 8 9 9
10 10 10 10 9 9 9 9 9 9 8 8 8 8 7 7 7 7 7 7 7 7 7 7 7 7 7 7 8 8 7 7 7 7 7 7 7 8 8 8 8 8 8
9 9 9 9 9 9 9 8 8 8 8 8 7 7 7 7 7 7 7 7 7 7 7 7 7 7 7 7 7 7 7 7 7 7 7 7 7 7 8 8 7 7 8
9 9 9 9 9 8 8 8 8 8 7 7 7 7 7 7 7 7 6 6 6 6 7 7 7 7 7 7 7 7 7 7 7 7 7 7 7 7 7 7 7 7 7
8 8 8 8 8 8 8 8 7 7 7 7 7 7 7 6 6 6 6 6 6 6 6 6 6 6 7 7 7 7 7 7 7 7 7 7 7 7 7 7 7 7 6
8 8 8 8 8 8 7 7 7 7 6 6 6 6 6 6 6 6 6 6 6 6 6 6 6 6 6 6 6 6 6 6 6 6 6 6 6 6 7 7 7 7 7
7 7 7 7 7 7 7 7 6 6 6 6 6 6 6 6 6 5 5 5 5 5 5 5 5 5 5 5 6 6 6 6 6 6 6 6 6 6 6 6 6 6 6
7 7 7 7 7 7 6 6 6 6 6 6 5 5 5 5 5 5 5 5 5 5 5 5 5 5 5 5 5 5 5 5 5 6 6 6 6 6 6 6 6 6 6
7 7 7 6 6 6 6 6 5 5 5 5 5 5 5 5 5 4 4 4 4 5 5 5 4 5 5 5 5 5 5 5 5 5 5 6 6 6 6 6 6 6 6
6 6 6 6 6 6 5 5 5 5 5 5 5 4 4 4 4 4 4 4 4 4 4 4 4 4 4 4 4 5 5 5 5 5 5 5 5 6 6 6 6 6 6
5 5 5 5 5 5 5 5 5 5 4 4 4 4 4 4 4 4 4 4 4 4 4 4 4 4 4 4 4 4 4 4 5 5 5 5 5 5 6 5 5 6 6
5 5 4 4 4 4 4 4 4 4 4 4 3 3 3 3 3 3 3 3 3 3 3 4 3 3 3 4 4 4 4 4 4 5 5 5 5 5 5 5 5 5 5
4 4 4 4 4 3 3 4 3 3 3 3 3 3 3 3 3 3 3 3 3 3 3 3 3 3 3 3 4 4 4 4 4 4 4 4 5 5 5 5 5 5 5
3 3 3 3 3 3 3 3 3 3 3 3 2 2 2 2 2 3 3 3 3 3 2 3 3 2 3 3 3 3 3 4 4 4 4 4 4 4 4 4 4 5 5
3 3 3 2 2 2 3 3 3 3 2 2 2 2 2 2 2 2 3 3 2 2 2 2 2 2 2 3 3 3 3 3 3 3 4 4 4 4 4 4 4 4 4
2 2 2 2 2 2 2 2 2 2 2 2 2 2 2 2 2 2 2 2 2 2 2 2 2 2 2 2 3 3 2 3 3 3 3 3 4 4 4 4 4 4 4
1 1 1 1 1 1 1 1 1 1 1 1 1 1 1 1 1 1 1 1 1 1 1 1 2 2 2 2 2 2 2 2 2 2 3 3 3 3 3 3 3 3 3
1 1 1 1 1 1 1 1 1 1 1 1 1 1 1 1 1 1 1 1 1 1 1 1 1 1 1 2 2 2 2 2 2 2 2 3 3 3 3 3 3 3 3
0 0 0 0 0 0 0 0 0 0 0 0 0 1 1 1 1 1 1 1 0 -0 0 0 0 1 1 1 1 1 2 2 2 2 2 2 3 3 3 3 3 3 2
-0 -1 -1 -0 -0 -0 -0 -0 -0 -0 -0 -0 0 0 0 0 0 0 0 0 -0 -0 -0 -0 -0 0 1 1 1 1 1 1 2 2 2 2 2 2 2 2 2 2 2
-1 -1 -1 -1 -1 -1 -1 -1 -1 -1 -1 -0 -0 -0 -0 -0 -0 -0 -1 -1 -0 -1 -0 -0 -0 0 0 0 1 1 1 1 1 1 2 2 2 2 2 1 1 1 1
-2 -2 -2 -2 -1 -1 -1 -1 -1 -1 -1 -1 -1 -1 -1 -1 -1 -1 -1 -1 -1 -1 -0 -0 -0 -0 -0 -0 0 0 1 1 1 1 1 1 1 1 1 1 1 1 1
Wind_Speed
7 5 4 4 4 4 4 4 4 4 3 3 3 3 4 4 4 5 7 7 8 8 7 6 6 6 6 7 7 5 5 4 3 2 3 4 5 7 7 7 6 7 9
5 5 4 3 4 4 5 5 6 5 5 5 5 5 5 5 5 5 6 7 8 8 8 8 7 7 6 7 7 6 5 4 4 3 2 3 3 4 6 6 7 7 6
8 6 5 4 4 5 6 6 6 6 6 6 4 3 3 3 4 5 5 7 8 8 8 9 8 8 7 8 8 8 8 6 5 5 4 3 4 3 3 5 6 6 6
7 6 5 5 6 7 6 6 6 6 6 6 5 5 6 6 7 6 6 6 7 8 8 9 9 8 7 8 9 8 6 7 6 5 5 5 4 4 3 3 4 6 7
7 7 7 7 7 6 5 5 5 5 5 5 6 7 7 7 6 5 7 7 7 7 8 8 8 9 8 9 9 8 7 7 7 6 5 5 5 5 5 6 5 4 5
5 5 5 4 4 4 3 4 4 5 5 5 6 7 8 8 7 7 7 7 6 6 8 8 8 9 8 9 9 9 9 8 8 7 6 5 5 5 5 6 6 6 6
3 3 3 3 4 4 4 4 4 5 5 5 6 7 8 8 9 8 8 7 6 6 8 8 8 8 9 10 9 9 9 9 10 9 8 7 7 5 5 5 6 6 5
4 4 4 4 4 5 4 4 5 6 5 5 6 5 6 6 6 8 7 8 7 7 8 8 8 10 10 10 9 8 9 9 10 10 10 8 7 6 6 6 5 6 6
5 5 5 4 5 4 5 5 5 5 5 5 5 5 6 6 7 7 7 7 7 7 8 8 9 9 10 10 10 8 9 9 10 10 10 9 7 7 7 6 6 7 7
4 5 4 4 5 5 5 5 5 5 6 5 5 5 6 6 6 6 7 7 7 7 7 8 8 8 9 9 9 8 8 9 9 8 9 9 7 6 6 6 6 6 7
5 4 5 5 4 4 4 4 4 4 5 5 5 5 5 6 6 6 7 7 7 7 7 7 8 8 9 9 8 8 8 9 9 8 9 9 8 7 7 6 6 6 6
4 4 5 4 3 3 3 4 4 5 5 4 4 5 5 5 5 6 6 6 6 6 6 7 7 8 8 8 8 9 8 9 9 9 9 10 8 9 7 7 7 7 6
4 4 4 4 4 4 4 4 4 4 4 4 4 5 5 5 6 6 6 6 6 6 6 6 7 8 7 7 8 8 8 9 9 9 10 9 8 9 7 7 7 6 6
4 4 4 4 4 4 4 5 5 4 4 4 4 5 5 5 6 5 5 5 5 5 5 6 7 7 6 7 7 7 7 8 8 9 9 9 9 10 8 7 7 6 6
5 4 4 4 5 5 5 5 5 5 5 5 5 6 6 5 5 5 5 5 5 6 5 5 6 6 5 6 6 7 7 7 7 7 8 9 9 10 8 7 6 6 6
5 4 4 4 5 5 5 5 6 5 4 5 5 6 5 5 5 5 5 5 5 5 5 5 6 6 5 7 7 6 6 6 6 6 6 7 7 9 9 9 9 9 8
4 4 4 5 5 5 5 5 6 5 5 5 5 6 5 5 5 5 5 5 5 5 6 6 5 5 6 7 7 6 4 4 5 5 5 5 6 7 6 6 7 8 10
4 4 4 5 5 5 5 5 5 4 4 5 6 6 5 5 5 5 6 6 5 5 6 5 5 5 6 6 6 4 3 3 3 3 4 4 4 5 5 4 4 4 5
4 4 4 4 5 5 5 5 5 5 5 6 6 6 5 5 6 6 6 6 5 5 5 5 5 5 5 6 5 4 2 2 3 3 4 4 4 5 4 4 3 2 2
3 4 4 4 5 6 5 4 5 5 6 7 7 6 5 5 5 6 6 5 4 4 4 4 4 4 5 5 4 3 2 2 2 2 2 4 4 4 4 4 4 3 2
4 4 4 5 5 5 4 4 5 6 7 6 6 6 5 5 5 5 4 4 3 3 3 4 4 4 4 5 4 4 2 2 2 2 2 2 3 4 3 3 3 4 3
5 5 5 6 6 5 4 5 7 7 6 6 6 5 5 5 4 3 3 3 2 2 2 2 3 3 3 3 3 3 3 2 2 2 2 2 2 3 3 2 3 4 4
5 5 5 7 7 6 4 5 7 6 6 5 6 5 5 4 3 3 3 2 1 1 2 2 2 3 2 2 2 2 2 2 1 2 2 2 1 1 2 3 4 4 3
5 5 6 6 7 7 6 6 6 5 4 5 6 5 4 4 3 2 2 1 1 1 1 2 2 2 2 2 1 1 1 1 0 0 1 1 2 2 2 2 2 2 3
5 5 5 6 8 7 7 6 5 4 4 5 4 4 3 2 2 2 2 2 2 2 2 2 2 2 2 3 4 2 1 1 1 0 1 2 2 1 2 2 2 3 4
5 6 6 7 8 8 7 6 5 4 3 4 4 3 2 2 1 2 3 4 3 5 5 4 3 2 3 4 4 4 2 2 0 1 1 2 2 2 2 3 3 3 4
Wind_Direction
232 224 219 219 202 202 203 213 217 232 223 227 233 236 240 240 237 236 236 239 238 234 228 233 223 219 219 218 213 213 219 231 220 252 280 273 250 243 238 233 232 232 229
230 231 227 219 203 208 214 220 226 233 231 226 225 222 229 237 238 240 240 239 237 233 232 225 220 218 222 222 215 207 214 228 211 205 250 270 274 249 240 230 229 230 228
209 219 221 223 210 219 226 230 233 236 239 235 233 243 250 254 251 245 242 240 237 235 231 226 224 220 219 223 220 211 212 223 223 203 205 222 239 277 251 238 236 230 230
208 216 220 224 219 228 230 232 236 240 242 235 229 232 240 249 248 244 243 251 241 238 229 224 225 223 223 225 224 222 221 212 226 223 220 230 230 239 266 261 245 240 236
205 213 221 223 225 224 228 235 237 244 247 240 234 235 245 247 250 249 247 250 246 238 230 225 224 224 225 225 223 222 223 217 223 228 226 234 243 235 242 263 264 263 244
211 220 233 229 233 229 235 243 244 254 249 246 244 237 244 248 251 255 251 252 248 242 235 230 227 228 228 227 225 222 223 224 225 229 230 228 229 230 231 244 251 261 266
212 235 242 237 242 242 248 254 253 263 260 257 258 249 243 241 243 249 247 250 251 246 238 237 233 232 230 230 227 221 224 222 224 229 233 232 234 235 236 241 253 259 270
245 248 250 239 239 244 249 255 262 269 273 268 268 259 249 244 246 248 249 248 248 248 245 239 241 238 231 232 227 224 227 227 227 234 233 232 233 229 230 231 239 260 270
263 259 262 252 245 247 252 247 256 269 275 274 273 272 263 259 257 256 253 252 252 252 244 240 245 242 235 230 226 229 231 229 231 233 231 231 232 227 228 225 220 231 256
287 278 271 263 249 244 252 249 246 254 261 265 268 278 277 270 265 261 259 256 253 250 248 246 249 246 240 231 226 230 233 229 233 233 229 230 233 228 225 222 226 227 236
289 284 284 275 260 268 269 265 264 263 268 272 277 284 284 281 275 265 259 257 259 254 252 249 250 248 243 232 227 230 231 232 237 237 228 229 227 228 225 221 224 228 226
290 286 286 293 289 279 280 280 277 271 267 267 279 283 284 286 282 277 272 262 260 258 254 253 255 254 248 235 229 231 233 233 237 238 230 231 229 227 222 220 225 227 224
306 311 312 307 299 293 292 292 289 282 284 285 285 289 287 289 286 279 275 269 264 268 265 258 259 256 248 243 237 233 234 234 238 238 230 230 226 230 224 219 224 228 229
298 307 308 307 306 304 305 302 299 295 300 298 292 287 286 284 284 282 279 273 267 270 274 269 268 263 253 250 244 237 238 238 242 238 230 230 226 227 220 221 222 222 222
311 315 317 319 324 322 313 307 302 305 306 301 297 293 294 291 289 288 285 283 278 278 274 278 281 275 263 257 252 239 237 237 240 240 233 232 232 228 223 222 215 211 215
306 321 329 327 321 314 311 312 307 304 306 300 299 303 303 305 301 294 287 287 286 284 281 277 275 275 272 275 279 259 237 233 238 241 236 235 229 229 231 230 227 217 210
305 314 313 309 304 302 304 303 297 305 311 305 308 311 313 312 306 303 299 288 282 281 282 273 271 273 273 278 282 283 244 229 233 237 237 236 230 223 216 226 232 231 228
308 306 305 307 309 310 310 311 313 313 313 310 308 309 311 307 305 304 299 291 283 279 278 269 266 267 271 277 280 285 264 239 234 238 228 224 221 211 206 207 222 232 232
300 296 296 301 309 313 314 320 321 319 316 308 303 303 302 303 305 302 295 290 285 282 279 268 262 263 270 275 275 278 247 237 247 243 233 217 210 208 202 191 201 235 238
320 311 312 318 318 314 318 320 314 315 306 299 297 298 300 300 296 293 293 292 285 280 285 282 268 260 266 271 266 265 231 229 240 246 233 221 208 208 203 193 192 211 210
312 317 322 317 309 309 320 313 307 299 295 297 300 301 302 299 293 293 296 298 298 298 295 296 291 277 268 268 260 260 238 222 221 232 239 235 222 217 223 218 195 197 175
314 319 319 312 308 308 308 304 298 294 299 300 301 302 303 301 305 301 301 301 296 296 294 302 308 301 291 277 264 261 268 260 210 221 236 229 220 222 225 201 171 158 148
309 311 305 305 307 306 298 291 293 298 305 308 304 301 303 300 299 295 295 300 297 286 298 310 310 316 320 309 289 291 291 295 260 221 223 224 191 198 177 150 143 144 144
307 311 312 310 307 308 304 290 293 298 306 307 305 303 301 303 318 323 312 303 286 279 289 289 290 303 314 322 320 313 299 273 270 209 186 172 141 127 113 103 118 132 141
305 307 306 302 301 306 305 303 303 306 310 309 306 308 306 301 321 330 315 294 281 260 264 263 258 263 285 290 297 293 266 219 192 151 123 128 128 120 105 103 106 110 118
308 308 306 305 304 306 304 306 308 307 310 316 317 314 313 317 320 339 343 339 324 319 315 305 290 287 277 295 300 300 299 302 276 92 119 128 130 131 125 125 115 106 114
Height
1448 1449 1450 1450 1451 1452 1453 1453 1454 1454 1454 1454 1453 1453 1452 1451 1451 1451 1451 1452 1452 1453 1453 1453 1454 1455 1455 1456 1458 1459 1460 1461 1462 1463 1462 1462 1463 1463 1464 1464 1465 1466 1467
1443 1444 1445 1446 1447 1448 1449 1449 1449 1449 1449 1449 1448 1448 1447 1446 1445 1445 1446 1446 1446 1447 1447 1448 1448 1449 1450 1451 1452 1453 1454 1456 1458 1458 1458 1457 1457 1456 1457 1458 1459 1460 1461
1439 1440 1442 1442 1443 1444 1444 1444 1444 1444 1444 1444 1444 1443 1442 1440 1440 1439 1439 1440 1440 1440 1441 1442 1443 1443 1444 1445 1446 1448 1449 1450 1452 1454 1455 1454 1451 1450 1451 1452 1453 1454 1455
1435 1436 1437 1438 1439 1439 1440 1439 1439 1439 1438 1438 1438 1437 1435 1434 1433 1433 1433 1434 1434 1434 1434 1436 1437 1437 1438 1439 1440 1442 1443 1444 1445 1447 1448 1449 1449 1448 1445 1445 1447 1448 1448
1431 1432 1433 1434 1434 1435 1435 1435 1434 1434 1433 1433 1432 1431 1430 1429 1428 1428 1427 1427 1428 1428 1429 1429 1430 1430 1431 1433 1434 1435 1437 1438 1439 1440 1440 1442 1443 1443 1442 1439 1440 1441 1442
1428 1429 1430 1430 1430 1431 1431 1431 1430 1429 1428 1427 1427 1425 1424 1423 1422 1421 1421 1421 1421 1422 1422 1423 1423 1424 1425 1426 1427 1428 1430 1431 1432 1433 1434 1435 1436 1435 1436 1435 1434 1435 1435
1425 1426 1426 1426 1427 1427 1427 1426 1426 1424 1423 1422 1421 1420 1418 1417 1416 1416 1415 1415 1415 1415 1416 1416 1417 1417 1417 1419 1420 1421 1422 1424 1425 1426 1427 1428 1429 1431 1431 1431 1430 1430 1430
1423 1423 1423 1423 1424 1423 1423 1423 1422 1420 1419 1417 1416 1414 1413 1412 1411 1410 1410 1409 1409 1409 1409 1409 1410 1410 1411 1412 1413 1414 1415 1417 1417 1418 1420 1421 1422 1424 1425 1426 1426 1425 1424
1421 1421 1421 1421 1421 1420 1420 1419 1418 1416 1415 1413 1411 1410 1409 1407 1405 1404 1404 1403 1403 1403 1403 1403 1402 1402 1403 1404 1405 1406 1407 1409 1410 1411 1412 1413 1415 1417 1419 1420 1421 1422 1419
1418 1418 1418 1417 1417 1417 1416 1415 1414 1412 1411 1410 1407 1406 1404 1402 1400 1399 1397 1397 1397 1397 1396 1396 1396 1395 1396 1397 1398 1398 1399 1401 1402 1403 1404 1406 1407 1410 1411 1413 1414 1415 1415
1415 1415 1415 1414 1414 1413 1412 1411 1410 1408 1407 1405 1403 1401 1399 1397 1395 1393 1391 1391 1390 1390 1389 1389 1389 1389 1389 1390 1390 1391 1392 1393 1394 1395 1397 1398 1401 1402 1404 1405 1407 1408 1409
1414 1413 1412 1411 1410 1410 1409 1407 1406 1404 1403 1401 1399 1396 1394 1391 1389 1387 1386 1385 1384 1383 1383 1382 1383 1383 1382 1383 1383 1384 1385 1386 1387 1388 1390 1391 1394 1395 1397 1398 1399 1400 1402
1412 1411 1409 1408 1407 1406 1405 1404 1402 1400 1399 1397 1394 1392 1389 1386 1384 1382 1380 1379 1379 1378 1377 1377 1377 1376 1376 1376 1376 1377 1378 1379 1380 1381 1383 1384 1386 1388 1389 1391 1392 1394 1395
1411 1409 1407 1406 1404 1403 1402 1400 1399 1397 1395 1393 1390 1387 1385 1382 1379 1377 1375 1374 1373 1373 1372 1371 1371 1371 1370 1371 1371 1371 1372 1373 1374 1375 1376 1377 1380 1381 1382 1384 1385 1387 1389
1409 1407 1405 1404 1402 1401 1399 1397 1395 1393 1391 1389 1386 1383 1380 1378 1375 1373 1371 1370 1369 1368 1367 1366 1365 1365 1365 1365 1365 1365 1366 1367 1368 1368 1369 1371 1373 1374 1376 1378 1379 1381 1383
1407 1405 1404 1402 1401 1399 1397 1394 1392 1390 1388 1385 1382 1379 1376 1373 1371 1369 1367 1366 1365 1364 1363 1362 1361 1360 1360 1360 1360 1360 1361 1361 1362 1362 1363 1365 1367 1369 1370 1372 1374 1375 1376
1406 1404 1402 1400 1398 1397 1394 1392 1389 1387 1384 1381 1378 1375 1372 1369 1367 1365 1363 1361 1360 1359 1358 1357 1356 1355 1355 1355 1355 1355 1356 1356 1357 1358 1359 1360 1362 1363 1365 1366 1368 1369 1370
1404 1402 1400 1398 1396 1394 1392 1389 1386 1383 1381 1378 1375 1372 1369 1366 1364 1361 1359 1357 1356 1355 1353 1352 1352 1352 1351 1351 1351 1351 1352 1352 1353 1354 1355 1356 1357 1359 1360 1361 1362 1363 1365
1402 1401 1399 1396 1393 1391 1388 1386 1383 1380 1378 1375 1371 1368 1366 1362 1360 1357 1355 1353 1351 1350 1349 1348 1348 1348 1348 1348 1348 1348 1349 1349 1349 1351 1352 1352 1353 1354 1356 1357 1358 1358 1360
1400 1398 1396 1393 1391 1388 1385 1382 1379 1377 1374 1371 1368 1365 1363 1359 1356 1354 1351 1350 1348 1347 1346 1345 1345 1345 1345 1345 1345 1345 1346 1346 1346 1347 1348 1349 1350 1351 1352 1353 1354 1355 1356
1398 1396 1393 1390 1388 1385 1382 1379 1376 1374 1371 1368 1365 1362 1359 1357 1354 1351 1349 1347 1345 1344 1343 1343 1342 1342 1342 1342 1342 1342 1342 1343 1343 1344 1345 1346 1347 1348 1349 1350 1351 1351 1353
1394 1392 1390 1387 1385 1382 1379 1376 1373 1370 1368 1365 1362 1359 1356 1354 1352 1349 1347 1345 1343 1342 1341 1340 1339 1339 1339 1340 1339 1340 1340 1341 1341 1341 1342 1343 1344 1345 1346 1346 1348 1349 1351
1391 1389 1387 1384 1381 1379 1376 1372 1370 1367 1364 1361 1358 1356 1353 1351 1349 1347 1345 1343 1341 1340 1339 1338 1337 1337 1337 1337 1337 1337 1338 1338 1338 1339 1340 1341 1341 1342 1343 1344 1345 1347 1348
1388 1385 1383 1380 1377 1375 1372 1369 1366 1364 1361 1357 1355 1352 1350 1348 1346 1345 1343 1341 1339 1338 1337 1337 1336 1336 1335 1335 1335 1335 1335 1336 1336 1337 1337 1338 1339 1340 1341 1342 1343 1345 1346
1384 1382 1379 1376 1373 1370 1368 1366 1363 1361 1358 1355 1353 1350 1348 1346 1345 1343 1342 1340 1339 1338 1337 1336 1336 1334 1333 1334 1334 1334 1334 1334 1334 1335 1335 1336 1337 1338 1338 1340 1341 1343 1345
1380 1378 1375 1372 1369 1367 1364 1362 1360 1358 1356 1353 1351 1349 1347 1345 1343 1342 1340 1339 1338 1337 1336 1335 1335 1334 1333 1333 1332 1333 1333 1333 1334 1334 1334 1334 1335 1336 1337 1339 1340 1342 1344